1590012039,2020-05-21 00:00,55.03,950.20,1022.01,596,8.60,0.08,-84,1
1590012099,2020-05-21 00:01,55.38,950.16,1021.97,596,8.56,0.13,-85,1
1590012159,2020-05-21 00:02,55.58,950.19,1022.00,596,8.53,0.15,-84,1
1590012219,2020-05-21 00:03,55.02,950.17,1021.98,596,8.50,-0.01,-84,1
1590012279,2020-05-21 00:04,56.25,950.22,1022.03,596,8.29,0.09,-84,1
1590012339,2020-05-21 00:05,55.77,950.19,1022.00,596,8.41,0.09,-84,1
1590012399,2020-05-21 00:06,55.87,950.19,1021.99,596,8.38,0.08,-85,1
1590012459,2020-05-21 00:07,56.29,950.19,1022.00,596,8.36,0.17,-86,1
1590012519,2020-05-21 00:08,56.70,950.17,1021.98,596,8.20,0.12,-84,1
1590012581,2020-05-21 00:09,56.37,950.16,1021.96,596,8.23,0.07,-84,1
1590012644,2020-05-21 00:10,56.41,950.19,1022.00,596,8.24,0.09,-85,1
1590012706,2020-05-21 00:11,56.32,950.20,1022.00,596,8.22,0.05,-84,1
1590012766,2020-05-21 00:12,56.74,950.20,1022.01,596,8.15,0.08,-83,1
1590012826,2020-05-21 00:13,56.70,950.22,1022.02,596,8.19,0.11,-85,1
1590012949,2020-05-21 00:15,57.67,950.23,1022.03,596,8.04,0.20,-84,1
1590013009,2020-05-21 00:16,57.75,950.21,1022.02,596,7.98,0.17,-83,1
1590013072,2020-05-21 00:17,57.36,950.16,1021.96,596,7.98,0.07,-85,1
1590013321,2020-05-21 00:22,57.17,950.29,1022.10,596,7.99,0.04,-85,1
1590013384,2020-05-21 00:23,57.09,950.30,1022.10,596,8.04,0.06,-84,1
1590014642,2020-05-21 00:44,58.20,950.33,1022.13,596,7.81,0.12,-85,1
1590014960,2020-05-21 00:49,58.09,950.47,1022.28,596,7.85,0.12,-84,1
1590015087,2020-05-21 00:51,57.85,950.51,1022.32,596,7.79,0.01,-84,1
1590015465,2020-05-21 00:57,58.36,950.51,1022.32,596,7.75,0.09,-84,1
1590015592,2020-05-21 00:59,58.18,950.48,1022.28,596,7.71,0.02,-85,1
1590015721,2020-05-21 01:02,58.39,950.44,1022.24,596,7.66,0.02,-84,1
1590015974,2020-05-21 01:06,58.65,950.40,1022.21,596,7.64,0.06,-85,1
1590016037,2020-05-21 01:07,59.11,950.42,1022.23,596,7.60,0.13,-84,1
1590016224,2020-05-21 01:10,58.67,950.38,1022.18,596,7.58,0.01,-85,1
1590016349,2020-05-21 01:12,59.39,950.36,1022.17,596,7.55,0.15,-84,1
1590016478,2020-05-21 01:14,59.17,950.38,1022.18,596,7.49,0.04,-85,1
1590016544,2020-05-21 01:15,58.17,950.35,1022.15,596,7.52,-0.17,-85,1
1590016672,2020-05-21 01:17,58.12,950.35,1022.16,596,7.53,-0.17,-84,1
1590016800,2020-05-21 01:20,57.86,950.35,1022.16,596,7.53,-0.23,-85,1
1590017053,2020-05-21 01:24,58.10,950.37,1022.18,596,7.50,-0.20,-83,1
1590017432,2020-05-21 01:30,59.59,950.38,1022.19,596,7.45,0.10,-84,1
1590017556,2020-05-21 01:32,59.41,950.37,1022.17,596,7.50,0.11,-84,1
1590017620,2020-05-21 01:33,59.38,950.38,1022.18,596,7.52,0.12,-85,1
1590017681,2020-05-21 01:34,59.47,950.33,1022.14,596,7.50,0.12,-84,1
1590017808,2020-05-21 01:36,59.86,950.34,1022.15,596,7.58,0.29,-85,1
1590017998,2020-05-21 01:39,58.96,950.30,1022.11,596,7.60,0.10,-86,1
1590018061,2020-05-21 01:41,58.71,950.33,1022.14,596,7.62,0.05,-84,1
1590018124,2020-05-21 01:42,58.87,950.29,1022.10,596,7.62,0.09,-84,1
1590018186,2020-05-21 01:43,58.27,950.31,1022.12,596,7.62,-0.05,-86,1
1590018440,2020-05-21 01:47,58.20,950.32,1022.13,596,7.59,-0.09,-85,1
1590018566,2020-05-21 01:49,58.03,950.30,1022.11,596,7.56,-0.16,-85,1
1590018628,2020-05-21 01:50,58.11,950.28,1022.09,596,7.57,-0.13,-85,1
1590018689,2020-05-21 01:51,58.11,950.30,1022.11,596,7.57,-0.13,-83,1
1590018942,2020-05-21 01:55,57.74,950.23,1022.04,596,7.54,-0.25,-84,1
1590019191,2020-05-21 01:59,58.04,950.26,1022.06,596,7.47,-0.24,-84,1
1590019255,2020-05-21 02:00,57.87,950.25,1022.06,596,7.45,-0.30,-85,1
1590019382,2020-05-21 02:03,58.02,950.25,1022.06,596,7.43,-0.29,-84,1
1590019446,2020-05-21 02:04,58.35,950.29,1022.10,596,7.26,-0.37,-83,1
1590019507,2020-05-21 02:05,58.46,950.28,1022.09,596,7.37,-0.24,-84,1
1590019695,2020-05-21 02:08,58.01,950.25,1022.06,596,7.31,-0.40,-84,1
1590019758,2020-05-21 02:09,58.20,950.27,1022.08,596,7.29,-0.37,-82,1
1590019819,2020-05-21 02:10,58.30,950.27,1022.07,596,7.30,-0.34,-84,1
1590019880,2020-05-21 02:11,58.04,950.28,1022.09,596,7.26,-0.44,-85,1
1590020069,2020-05-21 02:14,58.43,950.27,1022.08,596,7.21,-0.40,-84,1
1590020130,2020-05-21 02:15,57.69,950.27,1022.08,596,7.16,-0.62,-85,1
1590020191,2020-05-21 02:16,57.71,950.26,1022.07,596,7.14,-0.63,-85,1
1590020314,2020-05-21 02:18,58.02,950.25,1022.06,596,7.09,-0.60,-82,1
1590020376,2020-05-21 02:19,58.58,950.26,1022.07,596,7.08,-0.48,-84,1
1590020565,2020-05-21 02:22,58.12,950.29,1022.09,596,7.02,-0.65,-84,1
1590020626,2020-05-21 02:23,58.38,950.24,1022.04,596,7.00,-0.60,-83,1
1590020813,2020-05-21 02:26,58.28,950.31,1022.11,596,6.93,-0.69,-84,1
1590020877,2020-05-21 02:27,58.65,950.26,1022.07,596,6.93,-0.61,-84,1
1590020939,2020-05-21 02:28,58.19,950.26,1022.07,596,6.91,-0.73,-84,1
1590021004,2020-05-21 02:30,58.14,950.29,1022.10,596,6.90,-0.76,-83,1
1590021068,2020-05-21 02:31,58.04,950.28,1022.09,596,6.87,-0.81,-85,1
1590021195,2020-05-21 02:33,58.42,950.23,1022.04,596,6.85,-0.74,-84,1
1590021256,2020-05-21 02:34,58.97,950.22,1022.03,596,6.84,-0.62,-84,1
1590021379,2020-05-21 02:36,59.03,950.24,1022.04,596,6.78,-0.66,-85,1
1590021503,2020-05-21 02:38,58.95,950.26,1022.06,596,6.73,-0.73,-85,1
1590021566,2020-05-21 02:39,58.27,950.26,1022.07,596,6.72,-0.89,-83,1
1590021628,2020-05-21 02:40,58.76,950.25,1022.06,596,6.72,-0.78,-84,1
1590021814,2020-05-21 02:43,58.53,950.27,1022.07,596,6.66,-0.89,-85,1
1590021877,2020-05-21 02:44,58.35,950.26,1022.07,596,6.64,-0.95,-83,1
1590021941,2020-05-21 02:45,58.21,950.28,1022.08,596,6.62,-1.00,-86,1
1590022006,2020-05-21 02:46,58.94,950.27,1022.08,596,6.58,-0.87,-84,1
1590022070,2020-05-21 02:47,59.22,950.26,1022.06,596,6.52,-0.86,-83,1
1590022132,2020-05-21 02:48,59.01,950.27,1022.08,596,6.49,-0.94,-84,1
1590022196,2020-05-21 02:49,59.34,950.28,1022.09,596,6.49,-0.86,-83,1
1590022260,2020-05-21 02:51,58.41,950.26,1022.07,596,6.45,-1.12,-84,1
1590022321,2020-05-21 02:52,59.17,950.27,1022.08,596,6.45,-0.94,-84,1
1590022382,2020-05-21 02:53,58.85,950.25,1022.06,596,6.43,-1.03,-84,1
1590022445,2020-05-21 02:54,59.44,950.25,1022.05,596,6.42,-0.91,-84,1
1590022509,2020-05-21 02:55,58.98,950.24,1022.05,596,6.41,-1.02,-84,1
1590022570,2020-05-21 02:56,59.35,950.27,1022.08,596,6.40,-0.94,-85,1
1590022633,2020-05-21 02:57,58.74,950.27,1022.08,596,6.37,-1.11,-83,1
1590022694,2020-05-21 02:58,59.21,950.27,1022.08,596,6.36,-1.01,-85,1
1590022756,2020-05-21 02:59,59.06,950.25,1022.06,596,6.34,-1.07,-85,1
1590022880,2020-05-21 03:01,58.88,950.31,1022.12,596,6.29,-1.16,-86,1
1590022941,2020-05-21 03:02,59.15,950.29,1022.10,596,6.25,-1.13,-83,1
1590023064,2020-05-21 03:04,59.49,950.30,1022.11,596,6.21,-1.09,-83,1
1590023129,2020-05-21 03:05,59.50,950.31,1022.11,596,6.19,-1.11,-83,1
1590023190,2020-05-21 03:06,59.35,950.28,1022.08,596,6.13,-1.20,-84,1
1590023251,2020-05-21 03:07,58.79,950.26,1022.07,596,6.12,-1.34,-83,1
1590023311,2020-05-21 03:08,59.90,950.27,1022.07,596,6.07,-1.13,-85,1
1590023375,2020-05-21 03:09,59.94,950.23,1022.04,596,6.02,-1.17,-85,1
1590023436,2020-05-21 03:10,60.32,950.26,1022.07,596,6.01,-1.09,-84,1
1590023497,2020-05-21 03:11,60.07,950.24,1022.04,596,5.99,-1.17,-84,1
1590023558,2020-05-21 03:12,59.42,950.24,1022.04,596,5.95,-1.35,-85,1
1590023618,2020-05-21 03:13,60.38,950.23,1022.04,596,5.96,-1.12,-83,1
1590023679,2020-05-21 03:14,60.30,950.26,1022.06,596,5.91,-1.19,-83,1
1590023740,2020-05-21 03:15,60.15,950.23,1022.04,596,5.88,-1.25,-84,1
1590023800,2020-05-21 03:16,59.76,950.26,1022.06,596,5.84,-1.38,-85,1
1590023862,2020-05-21 03:17,60.37,950.25,1022.05,596,5.78,-1.30,-83,1
1590023922,2020-05-21 03:18,60.48,950.20,1022.01,596,5.76,-1.29,-84,1
1590023985,2020-05-21 03:19,60.50,950.20,1022.01,596,5.74,-1.30,-84,1
1590024046,2020-05-21 03:20,60.37,950.27,1022.08,596,5.72,-1.35,-84,1
1590024106,2020-05-21 03:21,60.23,950.25,1022.05,596,5.70,-1.40,-84,1
1590024230,2020-05-21 03:23,60.42,950.23,1022.03,596,5.67,-1.39,-83,1
1590024290,2020-05-21 03:24,60.52,950.23,1022.04,596,5.66,-1.38,-84,1
1590024353,2020-05-21 03:25,60.60,950.24,1022.05,596,5.64,-1.38,-83,1
1590024415,2020-05-21 03:26,60.46,950.25,1022.06,596,5.61,-1.44,-84,1
1590024476,2020-05-21 03:27,60.44,950.25,1022.06,596,5.58,-1.47,-84,1
1590024663,2020-05-21 03:31,60.60,950.28,1022.08,596,5.55,-1.46,-84,1
1590024724,2020-05-21 03:32,60.84,950.32,1022.12,596,5.51,-1.45,-84,1
1590024785,2020-05-21 03:33,60.41,950.31,1022.12,596,5.52,-1.53,-84,1
1590024848,2020-05-21 03:34,60.72,950.32,1022.13,596,5.52,-1.46,-85,1
1590024909,2020-05-21 03:35,60.20,950.34,1022.15,596,5.52,-1.58,-84,1
1590024971,2020-05-21 03:36,60.11,950.34,1022.15,596,5.50,-1.62,-85,1
1590025032,2020-05-21 03:37,60.13,950.34,1022.15,596,5.48,-1.63,-84,1
1590025094,2020-05-21 03:38,59.85,950.34,1022.14,596,5.47,-1.71,-84,1
1590025155,2020-05-21 03:39,59.88,950.37,1022.18,596,5.47,-1.70,-84,1
1590025216,2020-05-21 03:40,60.05,950.37,1022.18,596,5.45,-1.68,-84,1
1590025277,2020-05-21 03:41,60.07,950.35,1022.16,596,5.44,-1.69,-83,1
1590025337,2020-05-21 03:42,60.19,950.35,1022.16,596,5.36,-1.73,-84,1
1590025399,2020-05-21 03:43,61.00,950.33,1022.14,596,5.26,-1.65,-84,1
1590025459,2020-05-21 03:44,60.55,950.33,1022.14,596,5.26,-1.75,-83,1
1590025521,2020-05-21 03:45,61.11,950.30,1022.10,596,5.22,-1.66,-83,1
1590025582,2020-05-21 03:46,60.78,950.30,1022.10,596,5.19,-1.76,-85,1
1590025644,2020-05-21 03:47,62.05,950.26,1022.07,596,5.16,-1.51,-84,1
1590025704,2020-05-21 03:48,62.38,950.24,1022.04,596,5.14,-1.46,-82,1
1590025765,2020-05-21 03:49,62.32,950.23,1022.04,596,5.12,-1.49,-84,1
1590025826,2020-05-21 03:50,62.50,950.27,1022.08,596,5.08,-1.49,-82,1
1590025886,2020-05-21 03:51,61.63,950.22,1022.03,596,5.05,-1.71,-82,1
1590025947,2020-05-21 03:52,61.29,950.21,1022.01,596,5.03,-1.80,-84,1
1590026008,2020-05-21 03:53,61.09,950.19,1022.00,596,5.02,-1.85,-84,1
1590026070,2020-05-21 03:54,60.84,950.20,1022.00,596,4.99,-1.94,-84,1
1590026130,2020-05-21 03:55,61.33,950.19,1022.00,596,5.00,-1.82,-84,1
1590026254,2020-05-21 03:57,60.82,950.19,1022.00,596,4.98,-1.95,-84,1
1590026315,2020-05-21 03:58,60.72,950.17,1021.98,596,4.98,-1.97,-85,1
1590026375,2020-05-21 03:59,60.82,950.18,1021.99,596,4.97,-1.96,-86,1
1590026436,2020-05-21 04:00,60.64,950.21,1022.02,596,4.92,-2.05,-84,1
1590026496,2020-05-21 04:01,60.68,950.19,1022.00,596,4.92,-2.04,-84,1
1590026559,2020-05-21 04:02,60.96,950.21,1022.02,596,4.90,-2.00,-85,1
1590026621,2020-05-21 04:03,60.80,950.18,1021.99,596,4.86,-2.07,-84,1
1590026682,2020-05-21 04:04,60.83,950.23,1022.03,596,4.82,-2.10,-84,1
1590026743,2020-05-21 04:05,61.03,950.22,1022.03,596,4.81,-2.07,-83,1
1590026805,2020-05-21 04:06,60.77,950.23,1022.04,596,4.77,-2.16,-83,1
1590026868,2020-05-21 04:07,61.10,950.24,1022.05,596,4.77,-2.09,-85,1
1590026929,2020-05-21 04:08,61.45,950.25,1022.05,596,4.74,-2.04,-84,1
1590026990,2020-05-21 04:09,60.27,950.25,1022.06,596,4.70,-2.34,-85,1
1590027113,2020-05-21 04:11,60.76,950.25,1022.05,596,4.67,-2.26,-84,1
1590027174,2020-05-21 04:12,60.82,950.28,1022.09,596,4.65,-2.26,-85,1
1590027235,2020-05-21 04:13,61.83,950.26,1022.07,596,4.55,-2.14,-84,1
1590027295,2020-05-21 04:14,62.61,950.28,1022.09,596,4.43,-2.08,-83,1
1590027357,2020-05-21 04:15,62.30,950.30,1022.11,596,4.37,-2.20,-85,1
1590027418,2020-05-21 04:16,62.38,950.30,1022.11,596,4.38,-2.18,-83,1
1590027478,2020-05-21 04:17,61.97,950.29,1022.10,596,4.37,-2.28,-82,1
1590027540,2020-05-21 04:19,62.13,950.31,1022.12,596,4.35,-2.26,-84,1
1590027601,2020-05-21 04:20,62.04,950.26,1022.06,596,4.36,-2.27,-84,1
1590027665,2020-05-21 04:21,62.14,950.26,1022.06,596,4.34,-2.27,-84,1
1590027726,2020-05-21 04:22,62.04,950.23,1022.04,596,4.33,-2.30,-83,1
1590027787,2020-05-21 04:23,62.10,950.23,1022.04,596,4.30,-2.31,-83,1
1590027847,2020-05-21 04:24,62.06,950.20,1022.01,596,4.32,-2.30,-83,1
1590027907,2020-05-21 04:25,62.38,950.20,1022.01,596,4.26,-2.29,-84,1
1590027969,2020-05-21 04:26,61.94,950.18,1021.98,596,4.25,-2.40,-85,1
1590028030,2020-05-21 04:27,61.63,950.16,1021.97,596,4.22,-2.49,-85,1
1590028093,2020-05-21 04:28,61.91,950.18,1021.99,596,4.23,-2.42,-83,1
1590028154,2020-05-21 04:29,62.10,950.15,1021.95,596,4.21,-2.40,-84,1
1590028214,2020-05-21 04:30,62.18,950.17,1021.97,596,4.21,-2.38,-83,1
1590028274,2020-05-21 04:31,61.79,950.12,1021.93,596,4.17,-2.51,-84,1
1590028336,2020-05-21 04:32,62.10,950.13,1021.94,596,4.17,-2.44,-84,1
1590028398,2020-05-21 04:33,62.80,950.12,1021.93,596,4.17,-2.29,-83,1
1590028459,2020-05-21 04:34,62.75,950.09,1021.90,596,4.18,-2.29,-82,1
1590028520,2020-05-21 04:35,62.49,950.09,1021.90,596,4.18,-2.34,-85,1
1590028580,2020-05-21 04:36,62.12,950.08,1021.89,596,4.18,-2.42,-83,1
1590028641,2020-05-21 04:37,62.41,950.07,1021.88,596,4.18,-2.36,-84,1
1590028702,2020-05-21 04:38,61.33,950.14,1021.95,596,4.14,-2.63,-84,1
1590028764,2020-05-21 04:39,61.73,950.14,1021.95,596,4.13,-2.56,-85,1
1590028824,2020-05-21 04:40,62.64,950.19,1022.00,596,4.12,-2.37,-85,1
1590028885,2020-05-21 04:41,62.78,950.25,1022.05,596,4.10,-2.36,-83,1
1590028946,2020-05-21 04:42,63.00,950.22,1022.03,596,4.10,-2.31,-84,1
1590029070,2020-05-21 04:44,63.04,950.24,1022.05,596,4.08,-2.32,-84,1
1590029134,2020-05-21 04:45,62.46,950.22,1022.03,596,4.09,-2.44,-85,1
1590029194,2020-05-21 04:46,62.60,950.28,1022.09,596,4.07,-2.42,-85,1
1590029255,2020-05-21 04:47,62.85,950.28,1022.08,596,4.07,-2.37,-85,1
1590029316,2020-05-21 04:48,63.16,950.25,1022.05,596,4.09,-2.28,-85,1
1590029377,2020-05-21 04:49,62.84,950.25,1022.06,596,4.08,-2.36,-84,1
1590029502,2020-05-21 04:51,62.78,950.21,1022.01,596,4.09,-2.37,-86,1
1590029563,2020-05-21 04:52,62.64,950.25,1022.06,596,4.10,-2.39,-84,1
1590029624,2020-05-21 04:53,62.06,950.22,1022.03,596,4.10,-2.51,-84,1
1590029685,2020-05-21 04:54,62.40,950.16,1021.97,596,4.08,-2.46,-84,1
1590029745,2020-05-21 04:55,62.15,950.20,1022.01,596,4.05,-2.54,-85,1
1590029806,2020-05-21 04:56,61.98,950.17,1021.98,596,4.02,-2.61,-83,1
1590029867,2020-05-21 04:57,61.99,950.20,1022.01,596,3.96,-2.66,-84,1
1590029929,2020-05-21 04:58,62.11,950.25,1022.06,596,3.96,-2.63,-86,1
1590029990,2020-05-21 04:59,61.80,950.25,1022.06,596,3.96,-2.70,-84,1
1590030050,2020-05-21 05:00,61.76,950.28,1022.08,596,3.92,-2.75,-83,1
1590030113,2020-05-21 05:01,62.02,950.25,1022.06,596,3.93,-2.68,-84,1
1590030173,2020-05-21 05:02,62.69,950.25,1022.06,596,3.94,-2.53,-84,1
1590030235,2020-05-21 05:03,62.67,950.23,1022.04,596,3.87,-2.60,-84,1
1590030295,2020-05-21 05:04,62.94,950.28,1022.08,596,3.90,-2.51,-84,1
1590030356,2020-05-21 05:05,62.53,950.23,1022.04,596,3.81,-2.69,-85,1
1590030416,2020-05-21 05:06,63.65,950.29,1022.10,596,3.75,-2.50,-82,1
1590030478,2020-05-21 05:07,62.82,950.29,1022.10,596,3.75,-2.68,-84,1
1590030539,2020-05-21 05:08,63.01,950.31,1022.12,596,3.74,-2.65,-83,1
1590030602,2020-05-21 05:10,63.66,950.28,1022.09,596,3.76,-2.49,-84,1
1590030726,2020-05-21 05:12,63.50,950.23,1022.03,596,3.77,-2.52,-84,1
1590030787,2020-05-21 05:13,62.83,950.24,1022.05,596,3.78,-2.65,-84,1
1590030848,2020-05-21 05:14,63.37,950.25,1022.06,596,3.80,-2.51,-84,1
1590030909,2020-05-21 05:15,63.22,950.25,1022.05,596,3.77,-2.58,-84,1
1590030970,2020-05-21 05:16,63.60,950.22,1022.03,596,3.76,-2.51,-84,1
1590031030,2020-05-21 05:17,62.88,950.23,1022.03,596,3.77,-2.65,-83,1
1590031091,2020-05-21 05:18,62.81,950.24,1022.05,596,3.79,-2.65,-84,1
1590031152,2020-05-21 05:19,63.10,950.23,1022.03,596,3.82,-2.55,-83,1
1590031213,2020-05-21 05:20,62.88,950.20,1022.00,596,3.82,-2.60,-84,1
1590031273,2020-05-21 05:21,63.29,950.21,1022.01,596,3.84,-2.49,-84,1
1590031335,2020-05-21 05:22,63.00,950.22,1022.03,596,3.83,-2.57,-84,1
1590031396,2020-05-21 05:23,62.92,950.20,1022.00,596,3.86,-2.55,-84,1
1590031456,2020-05-21 05:24,63.25,950.21,1022.02,596,3.88,-2.47,-83,1
1590031580,2020-05-21 05:26,62.46,950.15,1021.96,596,3.88,-2.64,-84,1
1590031640,2020-05-21 05:27,63.11,950.14,1021.95,596,3.91,-2.47,-85,1
1590031701,2020-05-21 05:28,63.25,950.17,1021.97,596,3.91,-2.44,-84,1
1590031762,2020-05-21 05:29,63.03,950.10,1021.91,596,3.92,-2.47,-84,1
1590031824,2020-05-21 05:30,63.37,950.09,1021.90,596,3.94,-2.38,-82,1
1590031884,2020-05-21 05:31,63.15,950.13,1021.94,596,3.92,-2.45,-84,1
1590031945,2020-05-21 05:32,62.96,950.15,1021.95,596,3.92,-2.49,-85,1
1590032005,2020-05-21 05:33,63.27,950.18,1021.98,596,3.91,-2.43,-85,1
1590032066,2020-05-21 05:34,63.34,950.16,1021.97,596,3.87,-2.45,-83,1
1590032127,2020-05-21 05:35,63.62,950.24,1022.05,596,3.91,-2.36,-84,1
1590032188,2020-05-21 05:36,62.99,950.22,1022.03,596,3.88,-2.52,-84,1
1590032248,2020-05-21 05:37,63.32,950.24,1022.05,596,3.91,-2.42,-83,1
1590032310,2020-05-21 05:38,63.10,950.24,1022.05,596,3.87,-2.51,-84,1
1590032370,2020-05-21 05:39,63.22,950.28,1022.09,596,3.91,-2.44,-84,1
1590032430,2020-05-21 05:40,63.09,950.26,1022.06,596,3.93,-2.45,-85,1
1590032553,2020-05-21 05:42,63.79,950.27,1022.08,596,3.90,-2.33,-83,1
1590032613,2020-05-21 05:43,63.92,950.33,1022.14,596,3.89,-2.31,-84,1
1590032674,2020-05-21 05:44,63.86,950.27,1022.08,596,3.89,-2.32,-84,1
1590032735,2020-05-21 05:45,63.79,950.29,1022.09,596,3.91,-2.32,-84,1
1590032797,2020-05-21 05:46,64.08,950.25,1022.06,596,3.92,-2.25,-84,1
1590032857,2020-05-21 05:47,63.65,950.26,1022.07,596,3.92,-2.34,-84,1
1590032921,2020-05-21 05:48,64.60,950.23,1022.04,596,3.93,-2.13,-84,1
1590032981,2020-05-21 05:49,63.80,950.23,1022.04,596,3.93,-2.30,-84,1
1590033042,2020-05-21 05:50,64.59,950.24,1022.05,596,3.95,-2.11,-84,1
1590033103,2020-05-21 05:51,64.49,950.24,1022.04,596,3.97,-2.12,-84,1
1590033164,2020-05-21 05:52,64.48,950.23,1022.04,596,3.98,-2.11,-84,1
1590033226,2020-05-21 05:53,64.31,950.21,1022.02,596,4.01,-2.12,-84,1
1590033287,2020-05-21 05:54,64.06,950.21,1022.02,596,4.02,-2.16,-84,1
1590033348,2020-05-21 05:55,64.06,950.20,1022.01,596,4.02,-2.16,-85,1
1590033409,2020-05-21 05:56,64.14,950.18,1021.99,596,4.05,-2.11,-83,1
1590033470,2020-05-21 05:57,63.95,950.18,1021.99,596,4.06,-2.14,-83,1
1590033531,2020-05-21 05:58,63.58,950.16,1021.97,596,4.07,-2.21,-84,1
1590033591,2020-05-21 05:59,63.71,950.16,1021.96,596,4.07,-2.19,-84,1
1590033652,2020-05-21 06:00,64.21,950.22,1022.03,596,4.06,-2.09,-84,1
1590033712,2020-05-21 06:01,64.83,950.21,1022.02,596,4.07,-1.95,-85,1
1590033837,2020-05-21 06:03,64.47,950.13,1021.94,596,4.11,-1.99,-85,1
1590033898,2020-05-21 06:04,64.06,950.14,1021.95,596,4.12,-2.07,-85,1
1590033959,2020-05-21 06:05,63.71,950.16,1021.97,596,4.16,-2.10,-85,1
1590034020,2020-05-21 06:07,64.55,950.17,1021.98,596,4.21,-1.88,-83,1
1590034144,2020-05-21 06:09,65.11,950.14,1021.95,596,4.26,-1.71,-83,1
1590034205,2020-05-21 06:10,65.10,950.13,1021.94,596,4.28,-1.69,-83,1
1590034266,2020-05-21 06:11,64.98,950.15,1021.96,596,4.30,-1.70,-85,1
1590034326,2020-05-21 06:12,66.75,950.23,1022.03,596,4.27,-1.36,-82,1
1590034387,2020-05-21 06:13,66.00,950.26,1022.07,596,4.32,-1.47,-84,1
1590034448,2020-05-21 06:14,66.05,950.22,1022.02,596,4.36,-1.42,-86,1
1590034509,2020-05-21 06:15,65.83,950.19,1022.00,596,4.39,-1.44,-86,1
1590034569,2020-05-21 06:16,65.91,950.19,1022.00,596,4.43,-1.38,-84,1
1590034630,2020-05-21 06:17,65.33,950.22,1022.03,596,4.46,-1.47,-85,1
1590034692,2020-05-21 06:18,66.17,950.20,1022.01,596,4.47,-1.29,-85,1
1590034753,2020-05-21 06:19,66.27,950.23,1022.04,596,4.53,-1.21,-84,1
1590034813,2020-05-21 06:20,65.57,950.20,1022.01,596,4.56,-1.33,-82,1
1590034873,2020-05-21 06:21,65.89,950.21,1022.02,596,4.62,-1.20,-86,1
1590034933,2020-05-21 06:22,65.70,950.22,1022.03,596,4.65,-1.22,-84,1
1590034994,2020-05-21 06:23,65.68,950.21,1022.02,596,4.68,-1.19,-84,1
1590035054,2020-05-21 06:24,66.07,950.16,1021.96,596,4.72,-1.07,-84,1
1590035116,2020-05-21 06:25,65.74,950.16,1021.96,596,4.75,-1.11,-82,1
1590035176,2020-05-21 06:26,66.22,950.17,1021.98,596,4.78,-0.98,-83,1
1590035237,2020-05-21 06:27,65.76,950.18,1021.99,596,4.82,-1.04,-84,1
1590035297,2020-05-21 06:28,65.80,950.18,1021.99,596,4.86,-0.99,-84,1
1590035358,2020-05-21 06:29,66.05,950.15,1021.96,596,4.89,-0.91,-85,1
1590035419,2020-05-21 06:30,66.65,950.18,1021.99,596,4.94,-0.74,-84,1
1590035481,2020-05-21 06:31,66.47,950.19,1022.00,596,4.94,-0.78,-84,1
1590035541,2020-05-21 06:32,66.14,950.21,1022.02,596,5.00,-0.79,-84,1
1590035601,2020-05-21 06:33,66.86,950.19,1022.00,596,5.02,-0.62,-86,1
1590035661,2020-05-21 06:34,65.96,950.21,1022.02,596,5.07,-0.76,-85,1
1590035723,2020-05-21 06:35,66.76,950.24,1022.05,596,5.13,-0.54,-85,1
1590035784,2020-05-21 06:36,66.75,950.22,1022.03,596,5.17,-0.50,-83,1
1590035845,2020-05-21 06:37,67.01,950.23,1022.04,596,5.21,-0.41,-84,1
1590035906,2020-05-21 06:38,66.21,950.25,1022.06,596,5.25,-0.54,-84,1
1590035968,2020-05-21 06:39,66.56,950.24,1022.05,596,5.29,-0.43,-83,1
1590036029,2020-05-21 06:40,66.44,950.27,1022.08,596,5.32,-0.42,-84,1
1590036089,2020-05-21 06:41,66.63,950.24,1022.05,596,5.36,-0.35,-84,1
1590036149,2020-05-21 06:42,65.99,950.26,1022.07,596,5.39,-0.45,-84,1
1590036211,2020-05-21 06:43,66.38,950.27,1022.07,596,5.44,-0.32,-84,1
1590036274,2020-05-21 06:44,66.85,950.26,1022.07,596,5.42,-0.24,-83,1
1590036336,2020-05-21 06:45,66.86,950.31,1022.12,596,5.53,-0.14,-83,1
1590036397,2020-05-21 06:46,66.86,950.31,1022.12,596,5.57,-0.10,-85,1
1590036457,2020-05-21 06:47,66.15,950.30,1022.10,596,5.62,-0.20,-84,1
1590036518,2020-05-21 06:48,66.38,950.28,1022.09,596,5.65,-0.12,-83,1
1590036768,2020-05-21 06:52,66.22,950.28,1022.08,596,5.78,-0.03,-84,1
1590036828,2020-05-21 06:53,66.96,950.27,1022.07,596,5.82,0.16,-85,1
1590036890,2020-05-21 06:54,66.79,950.27,1022.07,596,5.88,0.18,-84,1
1590036950,2020-05-21 06:55,67.30,950.25,1022.06,596,5.91,0.32,-84,1
1590037010,2020-05-21 06:56,67.98,950.23,1022.04,596,5.93,0.47,-85,1
1590037072,2020-05-21 06:57,67.36,950.24,1022.05,596,5.98,0.40,-84,1
1590037134,2020-05-21 06:58,67.18,950.22,1022.02,596,6.00,0.38,-84,1
1590037195,2020-05-21 06:59,66.51,950.22,1022.02,596,6.05,0.29,-85,1
1590037256,2020-05-21 07:00,67.39,950.21,1022.02,596,6.10,0.52,-84,1
1590037317,2020-05-21 07:01,66.99,950.17,1021.98,596,6.13,0.46,-85,1
1590037378,2020-05-21 07:02,67.58,950.15,1021.96,596,6.19,0.64,-83,1
1590037438,2020-05-21 07:03,67.80,950.11,1021.92,596,6.23,0.73,-85,1
1590037499,2020-05-21 07:04,67.85,950.16,1021.97,596,6.27,0.78,-85,1
1590037624,2020-05-21 07:07,66.85,950.21,1022.02,596,6.38,0.67,-83,1
1590037750,2020-05-21 07:09,66.52,950.22,1022.03,596,6.47,0.69,-84,1
1590037811,2020-05-21 07:10,66.29,950.22,1022.03,596,6.54,0.71,-84,1
1590037871,2020-05-21 07:11,66.38,950.26,1022.07,596,6.59,0.78,-84,1
1590037932,2020-05-21 07:12,66.32,950.24,1022.04,596,6.60,0.77,-83,1
1590037993,2020-05-21 07:13,66.43,950.21,1022.01,596,6.71,0.90,-85,1
1590038054,2020-05-21 07:14,66.57,950.23,1022.04,596,6.77,0.99,-85,1
1590038115,2020-05-21 07:15,66.59,950.27,1022.08,596,6.83,1.05,-83,1
1590038175,2020-05-21 07:16,66.92,950.21,1022.02,596,6.89,1.18,-84,1
1590038236,2020-05-21 07:17,67.19,950.17,1021.98,596,6.97,1.31,-84,1
1590038297,2020-05-21 07:18,66.44,950.22,1022.03,596,7.03,1.21,-84,1
1590038358,2020-05-21 07:19,66.73,950.20,1022.00,596,7.11,1.35,-84,1
1590038418,2020-05-21 07:20,65.99,950.21,1022.02,596,7.17,1.25,-84,1
1590038479,2020-05-21 07:21,65.59,950.15,1021.95,596,7.24,1.23,-84,1
1590038543,2020-05-21 07:22,65.28,950.25,1022.06,596,7.31,1.23,-84,1
1590038606,2020-05-21 07:23,64.25,950.32,1022.12,596,7.42,1.12,-84,1
1590038666,2020-05-21 07:24,65.17,950.24,1022.05,596,7.52,1.41,-83,1
1590038730,2020-05-21 07:25,63.92,950.22,1022.03,596,7.58,1.19,-84,1
1590038792,2020-05-21 07:26,63.22,950.21,1022.01,596,7.66,1.12,-85,1
1590038852,2020-05-21 07:27,63.38,950.29,1022.09,596,7.73,1.22,-84,1
1590038913,2020-05-21 07:28,62.91,950.26,1022.07,596,7.79,1.17,-82,1
1590038975,2020-05-21 07:29,63.22,950.28,1022.09,596,7.86,1.31,-84,1
1590039035,2020-05-21 07:30,62.94,950.31,1022.12,596,7.91,1.29,-84,1
1590039097,2020-05-21 07:31,62.69,950.27,1022.08,596,7.94,1.27,-84,1
1590039159,2020-05-21 07:32,62.30,950.31,1022.11,596,8.02,1.26,-84,1
1590039220,2020-05-21 07:33,62.56,950.32,1022.13,596,8.05,1.34,-84,1
1590039346,2020-05-21 07:35,63.41,950.32,1022.13,596,8.19,1.66,-83,1
1590039409,2020-05-21 07:36,62.41,950.28,1022.09,596,8.22,1.47,-85,1